Location: Esp�s Alto
(42.4476°N, 0.5876°E)
Time: 05:38:47
(UTC+00:00)

Cosmos 1626 - Pass Details

Date: 22 October 2019
Orbit: 492 x 496 km, 82.5° (Epoch: 18 November)

Event Time Altitude Azimuth Distance (km) Brightness Sun altitude
Rises 05:05:02 0° 162° (SSE) 2,566 6.0 -14.2°
Reaches altitude 10° 05:07:19 10° 151° (SSE) 1,690 5.2 -13.8°
Maximum altitude 05:10:32 28° 91° (E) 953 4.4 -13.2°
Drops below altitude 10° 05:13:45 10° 31° (NNE) 1,704 5.2 -12.6°
Sets 05:16:04 0° 20° (NNE) 2,592 6.0 -12.2°
